www.pogodaiklimat.ru

Погода и климат >> Архив погоды >> Норвегия >> Берген аэропорт


ПОГОДА в Берген аэропорту

  • Прогноз погоды в Берген аэропорту
  • Монитор погоды в Берген аэропорту

АРХИВ ПОГОДЫ в Берген аэропорту

Время (UTC), дата Ветер
(напр.,м/с)
 
Видим.   Явления Облачность Т
(С)
Тd
(С)
f
(%)
Тe
(С)
Тes
(С)
Комфортность P
(гПа)
Po
(гПа)
Тmin
(С)
Tmax
(С)
R
(мм)
R24
(мм)
S
(см)
16 9.06 Ю 5
{8}
4300 м ливневой дождь 10/10 50 м
[]
+11.1 +10.7 97 +8 +8 1012.9 1006.8 1
17 9.06 Ю 8
{10}
2100 м слаб. ливневой дождь 10/10 50 м
[]
+10.5 +10.2 98 +6 +6 1013.5 1007.3 0.3
18 9.06 Ю 8
{11}
8000 м слаб. ливневой дождь 10/10 100 м
[]
+10.4 +9.9 97 +6 +6 1014.1 1008.0 +10.4 +12.0 2
19 9.06 Ю 8
{11}
3900 м слаб. ливневой дождь 10/10 50 м
[]
+10.3 +9.9 97 +6 +6 1014.2 1008.1 0.2
20 9.06 З 4
{10}
3200 м дождь 10/10 100 м
[]
+9.2 +8.7 97 +6 +6 1015.3 1009.2 3
21 9.06 З 3
{8}
8000 м слаб. дождь 10/10 100 м
[]
+8.8 +8.2 96 +6 +6 1016.8 1010.6 2
22 9.06 З 3
{8}
11 км слаб. дождь 10/0
[]
+8.6 +7.7 94 +6 +6 1017.6 1011.4 0.9
23 9.06 Ю 2
{5}
13 км слаб. дождь 10/10 300 м
[]
+8.7 +7.9 95 +7 +7 1018.3 1012.1 0.9
00 10.06 Ю 3
{11}
8000 м дождь 10/10 300 м
[]
+8.4 +7.7 95 +6 +6 1018.4 1012.2 7
01 10.06 Ю 2
{5}
3600 м дождь 10/10 50 м
[]
+8.3 +7.8 97 +6 +6 1018.4 1012.2 0.6
02 10.06 Ю 3
{5}
8000 м слаб. дождь 10/10 300 м
[]
+8.3 +7.8 97 +5 +5 1018.3 1012.1 0.6
03 10.06 Ю 4
{5}
7000 м слаб. дождь 10/10 100 м
[]
+8.7 +8.3 97 +5 +5 1018.4 1012.2 0.7
04 10.06 ЮЗ 4
{9}
8000 м слаб. ливневой дождь 10/10 600 м
[]
+8.9 +8.1 95 +6 +6 1018.7 1012.5 0.3
05 10.06 ЮЗ 3
{5}
30 км 10/10 1000 м
[]
+9.3 +8.1 92 +7 +7 1019.0 1012.8
06 10.06 Ю 3
{9}
26 км слаб. ливневой дождь 10/10 600 м
[]
+9.5 +8.3 92 +7 +7 1019.3 1013.1 +8.2 +10.6 9
07 10.06 Ю 4
{7}
14 км слаб. ливневой дождь 10/10 1500 м
[]
+10.1 +8.8 92 +7 +7 1019.4 1013.3
08 10.06 Ю 5
{8}
28 км 10/10 1000 м
[]
+10.4 +8.4 87 +7 +7 1020.0 1013.8
09 10.06 Ю 5
{7}
30 км 10/10 300 м
[]
+10.7 +8.5 86 +8 +8 1020.3 1014.1
10 10.06 ЮЗ 5
{7}
30 км 10/10 1500 м
[]
+11.2 +8.0 81 +9 +9 1020.4 1014.2
11 10.06 Ю 5
{7}
19 км слаб. ливневой дождь 10/10 1000 м
[]
+10.9 +8.6 86 +8 +8 1020.5 1014.4
12 10.06 Ю 5
{8}
40 км в посл. час морось 10/10 1000 м
[]
+11.3 +8.4 82 +9 +9 1020.5 1014.4
13 10.06 Ю 5
{8}
11 км слаб. ливневой дождь 10/10 600 м
[]
+10.7 +9.4 92 +8 +8 1020.7 1014.5
14 10.06 Ю 4
{7}
16 км слаб. ливневой дождь 10/10 300 м
[]
+11.8 +10.0 89 +10 +10 1020.8 1014.6
15 10.06 ЮЗ 4
{8}
29 км 10/10 1500 м
[]
+12.3 +9.2 81 +10 +10 1020.6 1014.5
16 10.06 ЮЗ 4
{7}
28 км 9/0
[]
+13.0 +9.1 77 +11 +14 1020.8 1014.6
17 10.06 Ю 4
{6}
29 км 8/8 300 м
[]
+11.6 +8.5 81 +9 +10 1020.9 1014.7
18 10.06 ЮЗ 3
{8}
30 км ясно +12.1 +8.4 78 +11 +12 1020.9 1014.8 +9.3 +13.2
19 10.06 ЮЗ 2
{5}
26 км ясно +11.5 +8.3 81 +10 +11 1021.0 1014.8
20 10.06 ЮЗ 2
{4}
29 км ясно +11.2 +8.5 83 +10 +10 1021.2 1015.0
21 10.06 З 2
{5}
30 км ясно +10.0 +8.1 88 +8 +8 1021.7 1015.5
22 10.06 СВ 2
{2}
11 км 8/8 300 м
[]
+9.0 +7.8 92 +7 +7 1021.8 1015.6
23 10.06 С 2
{3}
23 км 10/10 300 м
[]
+9.5 +8.2 92 +8 +8 1021.9 1015.7
00 11.06 С 2
{5}
19 км 10/10 300 м
[]
+9.7 +8.3 91 +8 +8 1021.6 1015.4
01 11.06 С 2
{2}
19 км 10/10 300 м
[]
+9.8 +8.6 92 +8 +8 1021.3 1015.1
02 11.06 С 2
{3}
14 км 10/10 300 м
[]
+9.5 +8.5 93 +8 +8 1021.1 1014.9
03 11.06 С 1
{3}
9000 м 4/4 100 м
[]
+8.4 +7.5 94 +8 +8 1021.1 1014.8
04 11.06
{2}
8000 м 6/6 100 м
[]
+9.1 +8.6 97 1021.3 1015.1
05 11.06 С 2
{3}
23 км 3/0
[]
+9.9 +8.6 92 +8 +10 1021.2 1015.0
06 11.06 СЗ 2
{4}
35 км ясно +11.1 +8.6 85 +10 +13 1021.3 1015.1 +8.4 +12.3
07 11.06 С 5
{6}
30 км ясно +12.4 +8.3 76 +10 +13 1021.0 1014.9
08 11.06 С 4
{6}
35 км ясно +13.9 +8.0 68 +13 +18 1021.1 1015.0
09 11.06 СЗ 4
{5}
35 км ясно +15.2 +9.0 66 +14 +21 1021.1 1015.0
10 11.06 СЗ 3
{5}
35 км ясно +16.8 +9.0 60 +17 +27 1020.7 1014.7
11 11.06 С 5
{7}
35 км ясно +17.8 +9.8 59 +17 +24 1020.5 1014.5
12 11.06 СЗ 4
{7}
35 км ясно +19.0 +9.8 55 +20 +29 1020.1 1014.1
13 11.06 СЗ 5
{7}
30 км ясно +19.2 +9.2 52 +20 +26 1019.8 1013.8
14 11.06 СЗ 5
{8}
35 км ясно +19.5 +7.9 47 +20 +26 1019.8 1013.8
15 11.06 СЗ 6
{11}
30 км ясно +19.3 +6.8 44 +20 +23 1019.6 1013.6
16 11.06 С 6
{10}
30 км ясно +19.5 +7.8 47 +20 +22 1019.5 1013.6
17 11.06 С 5
{9}
40 км 1/0
[]
+19.2 +9.3 53 +20 +22 1019.1 1013.1
18 11.06 С 5
{10}
35 км 1/0
[]
+18.6 +9.5 55 +19 +20 1018.8 1012.8 +10.9 +19.7
19 11.06 С 5
{6}
45 км 3/0
[]
+17.6 +9.9 61 +17 +18 1018.8 1012.7
20 11.06 С 2
{5}
30 км 9/0
[]
+17.2 +10.6 65 +18 +18 1018.7 1012.7
21 11.06 СВ 3
{5}
40 км ясно +19.5 +7.3 45 +20 +20 1019.1 1013.1
22 11.06 В 3
{5}
35 км ясно +19.1 +5.8 42 +20 +20 1019.0 1013.1
23 11.06 В 3
{4}
35 км 6/0
[]
+18.7 +5.6 42 +19 +19 1019.0 1013.0
00 12.06 СВ 3
{6}
40 км 10/0
[]
+18.7 +6.0 43 +19 +19 1019.0 1013.0
01 12.06 В 4
{6}
45 км 10/0
[]
+18.4 +6.3 45 +18 +18 1018.9 1012.9
02 12.06 В 4
{8}
50 км 10/0
[]
+17.8 +5.4 44 +18 +18 1018.6 1012.5
03 12.06 В 3
{7}
50 км 10/0
[]
+17.2 +5.4 46 +17 +17 1018.8 1012.7
04 12.06 В 3
{7}
45 км 10/0
[]
+16.9 +5.2 46 +17 +17 1018.7 1012.6
05 12.06 В 2
{5}
40 км 10/0
[]
+16.7 +5.8 49 +17 +18 1018.9 1012.8
06 12.06 В 2
{8}
35 км 10/0
[]
+17.2 +6.0 48 +18 +19 1018.9 1012.8 +16.7 +19.6
07 12.06 В 2
{5}
40 км 10/0
[]
+17.2 +6.3 49 +18 +20 1018.6 1012.5
08 12.06 СВ 1
{5}
30 км 9/0
[]
+18.3 +6.3 45 +20 +25 1018.6 1012.6
09 12.06 З 3
{5}
45 км 10/0 2000 м
[]
+17.0 +7.9 55 +17 +21 1018.9 1012.9
10 12.06 ЮЗ 3
{4}
45 км 10/10 1500 м
[]
+16.9 +8.2 56 +17 +17 1018.7 1012.6
11 12.06 З 2
{6}
50 км 10/0 2000 м
[]
+18.7 +8.2 50 +20 +26 1018.0 1012.0
12 12.06 СЗ 3
{6}
45 км 10/0
[]
+18.9 +8.7 52 +20 +25 1017.3 1011.3
13 12.06 СЗ 5
{7}
35 км 10/0
[]
+18.8 +7.8 49 +19 +22 1016.4 1010.4
14 12.06 СЗ 4
{7}
35 км 10/0
[]
+19.3 +7.6 47 +20 +24 1016.1 1010.2
15 12.06 СЗ 4
{6}
30 км 10/0
[]
+18.4 +7.6 49 +19 +21 1015.7 1009.8
16 12.06 СЗ 4
{6}
35 км 10/0
[]
+17.8 +7.9 52 +18 +20 1015.2 1009.2
17 12.06 С 5
{7}
50 км 6/0
[]
+18.1 +8.1 52 +18 +19 1014.6 1008.7
18 12.06 С 4
{7}
45 км 8/0
[]
+17.4 +8.6 56 +17 +18 1014.0 1008.0 +16.8 +19.9
19 12.06 С 2
{5}
45 км 5/0
[]
+17.4 +9.5 60 +18 +19 1013.0 1007.0
20 12.06 В 1
{2}
40 км 10/0
[]
+16.5 +10.5 68 +17 +17 1012.4 1006.4
21 12.06 ЮЗ 1
{2}
30 км 10/0
[]
+16.2 +10.4 68 +17 +17 1012.4 1006.4
22 12.06 штиль 0
{2}
30 км морось 9/0
[]
+15.0 +10.2 73 +15 +15 1011.6 1005.6
23 12.06 В 1
{2}
45 км в посл. час дождь 9/0
[]
+14.3 +9.2 71 +15 +15 1010.8 1004.7 0.1
00 13.06 штиль 0
{5}
40 км 10/0 2000 м
[]
+14.2 +9.2 72 +14 +14 1009.9 1003.9 0.1
01 13.06 С 3
{3}
40 км в посл. час морось 10/0 2000 м
[]
+13.5 +10.3 81 +12 +12 1008.3 1002.3
02 13.06 ЮВ 1
{3}
40 км слаб. ливневой дождь 10/10 1500 м
[]
+13.0 +11.0 88 +13 +13 1006.8 1000.8 0.1
03 13.06 З 2
{3}
35 км слаб. ливневой дождь 10/10 1500 м
[]
+12.3 +10.6 89 +11 +11 1006.2 1000.1 0.1
04 13.06 В 1
{2}
12 км слаб. дождь 10/10 1500 м
[]
+12.2 +11.1 93 +12 +12 1005.6 999.6 2
05 13.06 ЮЗ 3
{6}
9000 м слаб. ливневой дождь 10/10 1000 м
[]
+11.8 +11.1 95 +10 +10 1005.6 999.5 0.9
06 13.06 Ю 3
{6}
6000 м дождь 10/10 50 м
[]
+11.3 +10.6 95 +9 +9 1005.6 999.5 +11.3 +17.9 5
07 13.06 ЮВ 3
{5}
28 км слаб. ливневой дождь 10/10 600 м
[]
+11.6 +10.8 95 +10 +10 1005.9 999.8 1
08 13.06 ЮВ 2
{5}
8000 м слаб. ливневой дождь 10/0
[]
+12.5 +11.4 93 +11 +15 1005.7 999.7
09 13.06 ЮЗ 2
{5}
30 км в посл. час морось 10/10 300 м
[]
+12.9 +11.5 91 +12 +12 1005.6 999.6
10 13.06 ЮЗ 2
{4}
5000 м слаб. ливневой дождь 10/10 300 м
[]
+12.5 +11.8 95 +11 +11 1005.7 999.7
11 13.06 ЮЗ 2
{5}
7000 м слаб. ливневой дождь 10/0
[]
+12.8 +12.1 96 +12 +18 1006.1 1000.1
12 13.06 ЮЗ 3
{7}
25 км в посл. час морось 10/10 1000 м
[]
+12.7 +12.0 96 +11 +11 1006.7 1000.7
13 13.06 Ю 5
{7}
45 км 10/10 300 м
[]
+13.6 +11.6 88 +12 +12 1007.4 1001.4
14 13.06 Ю 6
{9}
40 км 10/10 600 м
[]
+13.6 +10.9 84 +11 +11 1008.0 1002.0
15 13.06 Ю 7
{10}
30 км 9/0
[]
+16.3 +11.2 72 +15 +16 1008.1 1002.1
16 13.06 Ю 6
{11}
35 км 5/5 600 м
[]
+15.4 +9.9 70 +14 +15 1008.5 1002.5
17 13.06 Ю 6
{9}
40 км 5/0
[]
+16.1 +9.4 64 +15 +16 1008.7 1002.7
18 13.06 Ю 6
{11}
45 км 10/0
[]
+15.7 +9.6 67 +14 +15 1009.0 1003.0 +11.2 +16.9
19 13.06 ЮВ 4
{6}
45 км 9/0
[]
+15.8 +9.0 64 +15 +15 1009.4 1003.4
20 13.06 ЮЗ 3
{5}
45 км 10/10 1500 м
[]
+14.5 +9.5 72 +14 +14 1009.9 1003.9
21 13.06 ЮЗ 2
{5}
23 км 10/0
[]
+13.3 +9.9 80 +13 +13 1010.9 1004.8
22 13.06 Ю 3
{4}
26 км слаб. дождь 10/10 1500 м
[]
+13.1 +10.2 83 +12 +12 1011.7 1005.6
23 13.06 ЮВ 2
{4}
35 км в посл. час дождь 10/0
[]
+13.3 +9.6 78 +13 +13 1012.0 1006.0
00 14.06 Ю 3
{6}
50 км в посл. час морось 10/10 1500 м
[]
+14.5 +8.0 65 +14 +14 1012.2 1006.2
01 14.06 В 2
{6}
45 км 5/0 2000 м
[]
+13.1 +7.8 70 +12 +12 1012.4 1006.3
02 14.06 В 2
{3}
45 км 10/0
[]
+13.5 +7.5 67 +13 +13 1012.6 1006.6
03 14.06 В 2
{4}
50 км 9/0
[]
+13.6 +7.3 66 +13 +13 1013.0 1007.0
04 14.06 В 3
{5}
50 км 10/10 1500 м
[]
+14.9 +6.2 56 +14 +14 1013.0 1007.0
05 14.06 ЮВ 3
{4}
45 км 8/0 2000 м
[]
+15.4 +6.1 54 +15 +16 1013.2 1007.1
06 14.06 ЮВ 3
{6}
45 км 9/0
[]
+16.3 +6.1 51 +16 +18 1013.5 1007.4 +12.4 +16.4
07 14.06 ЮВ 5
{7}
30 км слаб. ливневой дождь 10/0
[]
+15.0 +7.6 61 +14 +15 1014.0 1008.0
08 14.06 В 2
{7}
50 км ливневой дождь 10/10 1500 м
[]
+15.3 +8.2 63 +15 +15 1013.6 1007.5
09 14.06 ЮВ 4
{8}
45 км 10/10 1500 м
[]
+18.2 +7.1 48 +18 +18 1014.0 1008.1
10 14.06 ЮВ 5
{9}
45 км 10/0 2000 м
[]
+18.1 +7.0 48 +18 +21 1014.4 1008.5
11 14.06 Ю 3
{6}
50 км 10/10 1500 м
[]
+17.9 +8.0 52 +18 +18 1015.0 1009.0
12 14.06 ЮЗ 4
{9}
30 км 10/10 1500 м
[]
+15.7 +10.8 73 +15 +15 1015.5 1009.4
13 14.06 ЮЗ 3
{6}
30 км 10/0
[]
+16.1 +10.9 71 +16 +21 1015.9 1009.9
14 14.06 Ю 3
{5}
11 км морось 10/0
[]
+15.1 +11.9 81 +14 +19 1016.2 1010.1
15 14.06 Ю 2
{8}
8000 м ливневой дождь 10/0
[]
+14.1 +11.4 84 +14 +18 1016.7 1010.7
16 14.06 Ю 1
{5}
27 км в посл. час дождь 8/0
[]
+13.8 +10.4 80 +14 +18 1016.2 1010.2
17 14.06 СЗ 2
{4}
25 км 9/0 2000 м
[]
+14.8 +10.0 73 +15 +17 1016.6 1010.5
18 14.06 ЮЗ 2
{8}
24 км 10/10 1500 м
[]
+14.6 +11.0 79 +14 +14 1016.7 1010.6 +13.7 +18.5
19 14.06 СВ 1
{3}
26 км 9/9 1500 м
[]
+14.5 +11.2 81 +15 +15 1017.0 1011.0
20 14.06 СВ 1
{2}
26 км 10/10 1500 м
[]
+14.4 +11.0 80 +15 +15 1017.4 1011.3
21 14.06 С 1
{3}
27 км 10/0 2000 м
[]
+13.8 +11.1 84 +14 +14 1017.9 1011.9
22 14.06 З 2
{3}
22 км 10/10 1500 м
[]
+13.2 +10.8 85 +12 +12 1018.6 1012.5
23 14.06 СВ 1
{4}
17 км ясно +11.9 +10.3 90 +12 +12 1018.9 1012.7
00 15.06 СВ 2
{4}
14 км н/о +11.7 +10.5 92 +10 +10 1018.9 1012.8
01 15.06 СВ 2
{3}
13 км ясно +11.1 +10.2 94 +10 +10 1018.8 1012.7
02 15.06 СВ 1
{3}
11 км ясно +10.7 +10.0 95 +10 +10 1018.8 1012.6
03 15.06 СВ 2
{3}
6000 м ясно +10.5 +10.0 97 +9 +9 1018.6 1012.4
04 15.06 СВ 2
{3}
17 км ясно +11.6 +10.8 95 +10 +11 1018.4 1012.3
05 15.06 СВ 2
{2}
22 км ясно +13.3 +11.5 89 +13 +14 1018.2 1012.1
06 15.06 СВ 2
{3}
30 км ясно +14.7 +11.2 80 +14 +18 1017.8 1011.8 +9.9 +14.9
07 15.06 С 2
{3}
35 км ясно +17.0 +11.7 71 +17 +23 1017.7 1011.7
08 15.06 С 3
{4}
30 км ясно +18.3 +9.2 55 +19 +25 1017.5 1011.5
09 15.06 З 2
{5}
40 км 3/3 1500 м
[]
+18.9 +9.7 55 +20 +27 1017.3 1011.3
10 15.06 З 2
{4}
30 км ясно +19.5 +8.2 48 +21 +33 комфорт 1016.8 1010.8
11 15.06 З 3
{4}
30 км ясно +20.2 +7.9 45 +22 +33 комфорт 1016.2 1010.2
12 15.06 З 3
{5}
30 км ясно +21.0 +7.7 42 +23 +34 комфорт 1015.7 1009.8
13 15.06 СЗ 4
{6}
35 км 1/0
[]
+21.8 +7.7 40 +23 +31 комфорт 1014.9 1009.0
14 15.06 С 4
{6}
35 км 1/0
[]
+21.9 +10.2 47 +24 +31 комфорт 1014.5 1008.6
15 15.06 С 4
{7}
35 км 5/0
[]
+20.7 +9.6 49 +22 +27 комфорт 1014.1 1008.2
16 15.06 С 5
{8}
35 км 10/0
[]
+19.8 +9.8 52 +21 +23 комфорт 1013.4 1007.4
17 15.06 С 4
{7}
35 км 5/0
[]
+18.6 +10.0 57 +19 +21 1012.7 1006.7
18 15.06 С 4
{8}
40 км 10/0
[]
+18.2 +11.1 63 +18 +19 1012.2 1006.2 +14.7 +22.5
19 15.06 С 5
{6}
30 км слаб. дождь 10/0 2000 м
[]
+16.8 +11.7 72 +16 +16 1012.1 1006.1
20 15.06 Ю 6
{8}
9000 м ливневой дождь 10/10 1500 м
[]
+15.3 +12.7 84 +14 +14 1014.1 1008.0
21 15.06 СВ 2
{8}
18 км слаб. дождь 3/0
[]
+14.8 +13.6 93 +14 +14 1013.2 1007.2
22 15.06 СВ 1
{3}
24 км слаб. ливневой дождь ясно +14.8 +13.8 94 +15 +15 1013.1 1007.0
23 15.06 С 2
{3}
17 км слаб. дождь 3/0
[]
+14.6 +13.7 94 +14 +14 1012.5 1006.5
00 16.06 СВ 2
{8}
15 км слаб. дождь 10/0
[]
+14.9 +13.9 94 +15 +15 1012.0 1006.0
01 16.06 З 1
{4}
22 км слаб. ливневой дождь 10/10 1500 м
[]
+14.6 +13.8 95 +15 +15 1011.6 1005.5
02 16.06 СВ 2
{4}
7000 м дождь 10/10 1500 м
[]
+14.7 +14.0 96 +14 +14 1011.5 1005.5
03 16.06 СВ 1
{3}
14 км слаб. ливневой дождь 10/10 1500 м
[]
+14.6 +14.1 97 +15 +15 1011.3 1005.3
04 16.06 В 2
{4}
7000 м дождь 10/0 2000 м
[]
+14.7 +13.9 95 +14 +15 1011.0 1005.0
05 16.06 ЮВ 2
{4}
30 км в посл. час дождь 10/0 2000 м
[]
+14.9 +14.0 94 +15 +15 1011.1 1005.0
06 16.06 Ю 4
{6}
6000 м слаб. ливневой дождь 10/10 300 м
[]
+14.2 +13.7 97 +13 +13 1011.8 1005.7 +14.2 +18.3
07 16.06 Ю 6
{8}
10 км слаб. дождь 10/10 100 м
[]
+13.4 +12.6 95 +11 +11 1012.4 1006.3
08 16.06 Ю 7
{9}
8000 м в посл. час дождь 10/10 100 м
[]
+12.5 +11.9 96 +10 +10 1013.0 1006.9
09 16.06 Ю 5
{9}
30 км 10/10 100 м
[]
+12.4 +11.6 95 +10 +10 1013.6 1007.6
10 16.06 Ю 5
{7}
30 км 10/10 100 м
[]
+13.3 +12.0 92 +11 +11 1014.0 1007.9
11 16.06 Ю 4
{7}
30 км 10/10 100 м
[]
+13.1 +11.7 91 +11 +11 1014.2 1008.1
12 16.06 Ю 3
{9}
30 км 9/9 300 м
[]
+14.7 +12.8 88 +14 +15 1014.1 1008.0
13 16.06 Ю 5
{7}
30 км ясно +16.5 +12.4 77 +16 +22 1014.0 1008.0
14 16.06 ЮЗ 5
{7}
30 км 1/0
[]
+17.0 +12.2 73 +16 +22 1014.1 1008.1

 

Местоположение метеостанции Берген аэропорт (Норвегия): широта 62.29 долгота 5.23 высота над уровнем моря 48 м.

В архиве по умолчанию представлена погода в Берген аэропорту за последнюю неделю. Архивные данные за месяц целиком и за предыдущие месяцы, начиная с января 2011 года, Вы можете получить, выбрав интересующий диапазон дат из раскрывающегося списка и нажав кнопку "Ввод!".


*Определитесь, кто Вы:
робот инопланетянин человек

Внимание! Время в таблицах - всемирное. Для получения местного времени необходимо прибавить поправку, которая равна 1 ч.

Смотрите также архив погоды в соседних городах и на ближайших метеорологических станциях:

Погода на Маяке Svinoy (Норвегия) (5 км)
Погода в Фиске (Норвегия) (28 км)
Погода на Маяке Krakenes (Норвегия) (31 км)
Погода в Аэропорту Орста-Волда (Норвегия) (46 км)
Погода в Олесунне (Норвегия) (54 км)
Погода в Олесунн аэропорту (Норвегия) (55 км)
Погода в Сандан аэропорту (Норвегия) (68 км)
Погода в Флоро аэропорту (Норвегия) (80 км)
Погода в Стрын-Крокене (Норвегия) (81 км)
Погода на Маяке Ytteroyane (Норвегия) (85 км)

Пояснения к столбцам:

Ветер - указаны скорость ветра в м/с - средняя за 10 мин, порывы в срок и между сроками (в фигурных скобках) и направление, откуда дует ветер: С - северный, СВ - северо-восточный, В - восточный, ЮВ - юго-восточный, Ю - южный, ЮЗ - юго-западный, З - западный, СЗ - северо-западный.
Видимость - горизонтальная дальность видимости в метрах или километрах. При видимости от 1 до 10 км при отсутствии осадков обычно наблюдается дымка, при ухудшении видимости до 1 км и менее - туман. В сухую погоду видимость может ухудшаться дымом, пылью или мглою.
Явления - указаны атмосферные явления, наблюдавшиеся в срок или в последний час перед сроком; фигурными скобками обозначены явления, наблюдавшиеся между сроками (за 1-3 часа до срока); квадратными скобками обозначены град или гололедные отложения с указанием их диаметра в мм.
Облачность - указаны через наклонную черту общая и нижняя облачность в баллах и высота нижней границы облаков в метрах; квадратными скобками обозначены формы облаков: Ci - перистые, Cs - перисто-слоистые, Cc - перисто-кучевые, Ac - высококучевые, As - высокослоистые, Sc - слоисто-кучевые, Ns - слоисто-дождевые, Cu - кучевые, Cb - кучево-дождевые. Подробнее классификацию облаков см. в Атласе облаков (PDF).
T - Температура воздуха - температура, измеренная на высоте 2 м над землей.
Td - Температура точки росы - температура, при понижении до которой содержащийся в воздухе водяной пар достигнет насыщения.
f - Относительная влажность воздуха - влажноcть воздуха, измеренная на высоте 2 м над землей.
Te - Эффективная температура - температура, которую ощущает одетый по сезону человек в тени. Характеристика душности погоды. При расчете учитывается влияние влажности воздуха и скорости ветра на теплоощущения человека.
Tes - Эффективная температура на солнце - температура, которую ощущает человек, с поправкой на солнечный нагрев. Характеристика знойности погоды. Зависит от высоты солнца над горизонтом, облачности и скорости ветра. Ночью, в пасмурную погоду, а также при ветре 12 м/с и более поправка равна нулю.
P - Атмосферное давление - приведенное к уровню моря атмосферное давление.
Po - Атмосферное давление - измеренное на уровне метеостанции атмосферное давление.
Tmin - Минимальная температура - минимум температуры воздуха на высоте 2 м над землей.
Tmax - Максимальная температура - максимум температуры воздуха на высоте 2 м над землей.
R - Количество осадков - Количество выпавших осадков за период времени, мм. При наведении курсора мыши на число - период времени, за который выпало указанное количество осадков.
R24 - Количество осадков - Количество выпавших осадков за 24 часа, мм.
S - Снежный покров - Высота снежного покрова, см. При наведении курсора мыши на число - состояние снежного покрова и степень покрытия местности в баллах.